Miscellaneous Local Product
Issued by NWS Hastings, NE

Home | Current Version | Previous Version | Text Only | Print | Product List | Glossary Off
Versions: 1 2 3 4 5 6 7 8 9 10 11 12 13 14 15 16 17 18 19 20 21 22 23 24 25 26 27 28 29 30 31 32 33 34 35 36 37 38 39 40 41 42 43 44 45 46 47 48 49 50

000
AXUS43 KGID 191402
MISGRI

GID CWA HOURLY WEATHER ROUNDUP
NATIONAL WEATHER SERVICE HASTINGS NE
800 AM CST MON FEB 19 2018

NOTE: "FAIR" INDICATES FEW OR NO CLOUDS BELOW 12,000 FEET WITH NO
SIGNIFICANT WEATHER AND/OR OBSTRUCTIONS TO VISIBILITY.

...SOUTH CENTRAL NEBRASKA...

CITY           SKY/WX    TMP DP  RH WIND       PRES   REMARKS
GRAND ISLAND   FLURRIES  16  12  84 N22G31    29.83R WCI  -2
KEARNEY        FLURRIES  14  11  87 MISG      29.84R
HASTINGS       CLOUDY    16  12  84 N24G33    29.81S WCI  -2
ORD            FLURRIES  13   9  84 N23G31    29.85R WCI  -6
YORK           CLOUDY    18  18 100 N16G23    29.80F WCI   3
AURORA         FLURRIES  17  13  86 N17       29.81F WCI   1
LEXINGTON      FLURRIES  16  11  81 N16       29.85R WCI   0
HOLDREGE       FLURRIES  15  13  90 N20       29.82R WCI  -2
HEBRON         CLOUDY    21  19  92 N15G23    29.80R FOG     WCI   8

...NEBRASKA PANHANDLE...

CITY           SKY/WX    TMP DP  RH WIND       PRES   REMARKS
CHADRON        LGT SNOW   3  -1  83 N14       29.95R VSB 3/4 WCI -15
ALLIANCE       CLOUDY     4   1  88 N15       29.83R WCI -14
SCOTTSBLUFF    FLURRIES   6   0  76 NE8       29.84R WCI  -7
SIDNEY         LGT SNOW   7   4  87 N13       29.79S FOG     WCI  -9

...WESTERN AND NORTH CENTRAL NEBRASKA...

CITY           SKY/WX    TMP DP  RH WIND       PRES   REMARKS
VALENTINE      LGT SNOW   8   2  76 N15G26    29.94R WCI  -9
AINSWORTH      LGT SNOW   8   5  87 N21G29    29.90R WCI -12
ONEILL         LGT SNOW  12   9  89 N21G26    29.89R WCI  -7
BROKEN BOW     FLURRIES  13   8  81 N22G31    29.81F WCI  -6
IMPERIAL       FLURRIES  12   9  87 N16       29.82S WCI  -5
NORTH PLATTE   LGT SNOW  12   6  77 N15       29.85R WCI  -4
MCCOOK         LGT SNOW  15  11  83 N20       29.84R FOG     WCI  -2

...EASTERN NEBRASKA...

CITY           SKY/WX    TMP DP  RH WIND       PRES   REMARKS
NORFOLK        CLOUDY    17  15  92 N17G26    29.84R WCI   1
SO SIOUX CITY  MIX PCPN  19  17  92 N18       29.83R WCI   4
TEKAMAH        CLOUDY    22  20  92 N25G31    29.81R WCI   5
COLUMBUS       MIX PCPN  19  16  88 N16       29.84R WCI   4
ALBION         LGT SNOW  15  11  83 N15G23    29.84R WCI   0
OMAHA EPPLEY   FRZ DRZL  27  24  89 N23G31    29.75R FOG     WCI  12
OFFUTT AFB     CLOUDY    27  25  92 N16G22    29.73R WCI  15
MILLARD        CLOUDY    26  24  90 N12G21    29.76R FOG     WCI  16
LINCOLN        FLURRIES  23  20  88 N24G32    29.79R WCI   7
NEBRASKA CITY  MIX PCPN  28  28 100 N17G24    29.71R WCI  16
BEATRICE       CLOUDY    26  24  95 N20       29.76R FOG     WCI  12
FALLS CITY     CLOUDY    31  30  96 NW20G30   29.69R FOG     WCI  19

...NORTHERN KANSAS...

CITY           SKY/WX    TMP DP  RH WIND       PRES   REMARKS
GOODLAND       FLURRIES  13  10  88 N17       29.77S WCI  -4
HILL CITY      CLOUDY    20  16  84 N17       29.83R WCI   5
NORTON         FLURRIES  18  10  73 N15       29.83R WCI   3
PHILLIPSBURG   CLOUDY    19  14  79 N16G25    29.83R WCI   5
SMITH CENTER   CLOUDY    18  16  93 N16G23    29.82R WCI   3
BELOIT         CLOUDY    21  18  86 N15       29.80R WCI   8
RUSSELL        CLOUDY    23  20  88 N17       29.79R WCI   9
CONCORDIA      CLOUDY    21  20  96 N16G26    29.79R WCI   7
SALINA         CLOUDY    29  26  89 N18       29.79R WCI  16
TOPEKA         CLOUDY    46  42  86 W16G28    29.67R



USA.gov is the U.S. government's official web portal to all federal, state and local government web resources and services.